Content
SEND FEEDBACK

Daily
Averages
Monthly
Summary
United States of America

STATEN ISLAND, NEW YORK


Home > North America > United States > New York
Elevation: 152 feet     Latitude: 40 35N     Longitude: 074 09W

WEATHER
 
SELECT A DAY
Number of Records: 189,762;   Date Range: 1/1/95 - 8/28/14
 
SHARE

PRINT THIS DATA

[ ← Previous Day ]
WEATHER ALMANAC - FEBRUARY 3, 2013
[ Next Day → ]
[ °C ]   °F
Weather ElementAverageHighLow
Temperature26.9 °F32 °F (2:51 pm)23 °F (7:16 am)
Dewpoint19.5 °F23 °F (2:51 am)16 °F (4:51 pm)
Humidity74.5 %92 % (2:51 am)54 % (4:51 pm)
Barometer29.90 in30.04 in (12:51 am)29.80 in (4:51 pm)
Wind Speed6.4 mph11.5 mph (5:51 pm)
Wind Gust17.3 mph (4:51 pm)
Weather ElementAverage
Visibility9.1 mi
Wind DirectionSSE (167.1 °)

Weather ElementTotal
Precipitation0.01 in
Heating Degree Days37.5 (Base 65)
Averaged from 31 records on February 3, 2013
WEATHER CONDITIONS BREAKOUT
WIND DIRECTION BREAKOUT
WEATHER BY HOUR - FEBRUARY 3, 2013
[ °C ]   °F
Local TimeTemperatureDewpointHumidityBarometerVisibilityWind DirectionWind SpeedGust SpeedPrecipitationEventsConditions
12:51 AM25.0 °F21.9 °F88 %30.04 in4.0 miCalmSnowLight Snow
1:51 AM25.0 °F21.9 °F88 %30.02 in4.0 miCalm0.01 inSnowLight Snow
2:51 AM25.0 °F23.0 °F92 %30.00 in4.0 miNNE (20°)3.5 mph0.00 inSnowLight Snow
3:51 AM24.1 °F21.9 °F91 %29.97 in6.0 miNNE (20°)4.6 mph0.00 inOvercast
4:51 AM24.8 °F21.2 °F86 %29.95 in6.0 miNorth (10°)8.1 mphOvercast
5:51 AM25.0 °F21.0 °F85 %29.95 in9.0 miNNE (20°)6.9 mphOvercast
6:42 AM24.8 °F19.4 °F80 %29.95 in10.0 miNorth (360°)5.8 mphMostly Cloudy
6:51 AM24.1 °F19.0 °F81 %29.95 in10.0 miNorth (350°)5.8 mphMostly Cloudy
7:16 AM23.0 °F19.4 °F86 %29.97 in10.0 miNNE (30°)5.8 mphMostly Cloudy
7:33 AM23.0 °F19.4 °F86 %29.97 in10.0 miNorth (10°)6.9 mphMostly Cloudy
7:51 AM24.1 °F19.9 °F84 %29.96 in10.0 miNNE (20°)6.9 mphMostly Cloudy
8:08 AM24.8 °F19.4 °F80 %29.97 in10.0 miNorth (10°)6.9 mphMostly Cloudy
8:51 AM24.1 °F19.9 °F84 %29.96 in9.0 miNorth (10°)8.1 mphMostly Cloudy
9:48 AM26.6 °F21.2 °F80 %29.94 in10.0 miNorth (350°)9.2 mphMostly Cloudy
9:51 AM27.0 °F21.0 °F78 %29.94 in10.0 miNorth (350°)8.1 mphMostly Cloudy
10:51 AM27.0 °F21.0 °F78 %29.93 in10.0 miNNE (20°)6.9 mphMostly Cloudy
11:51 AM28.0 °F21.0 °F75 %29.89 in10.0 miNorth (350°)8.1 mphMostly Cloudy
12:51 PM28.9 °F19.9 °F69 %29.85 in10.0 miVariable3.5 mphMostly Cloudy
1:14 PM30.2 °F21.2 °F69 %29.84 in10.0 miCalmMostly Cloudy
1:49 PM30.2 °F19.4 °F64 %29.82 in10.0 miWest (270°)6.9 mphMostly Cloudy
1:51 PM30.9 °F19.0 °F61 %29.82 in10.0 miWest (270°)6.9 mphMostly Cloudy
2:51 PM32.0 °F19.4 °F60 %29.81 in10.0 miNW (310°)8.1 mphMostly Cloudy
3:51 PM32.0 °F18.0 °F56 %29.81 in10.0 miWNW (300°)10.4 mphMostly Cloudy
4:51 PM30.9 °F16.0 °F54 %29.80 in10.0 miWNW (290°)9.2 mph17.3 mphMostly Cloudy
5:51 PM30.0 °F16.0 °F56 %29.81 in10.0 miWest (280°)11.5 mphScattered Clouds
6:51 PM28.9 °F17.1 °F61 %29.82 in10.0 miWest (260°)6.9 mphScattered Clouds
7:51 PM28.0 °F17.1 °F63 %29.83 in10.0 miWest (270°)8.1 mphPartly Cloudy
8:51 PM27.0 °F17.1 °F66 %29.83 in10.0 miWest (270°)5.8 mphClear
9:51 PM26.1 °F17.1 °F69 %29.83 in10.0 miWest (270°)5.8 mphScattered Clouds
10:51 PM27.0 °F18.0 °F69 %29.82 in10.0 miSW (230°)5.8 mphOvercast
11:51 PM27.0 °F18.0 °F69 %29.82 in10.0 miSW (230°)9.2 mphMostly Cloudy
Hourly data recorded from KEWR, located miles away from Staten Island, New York







STORIES FROM OUR PARTNERS